CW1020 Weather Reports


Display with metric or nautical units.
time (UTC)temp
F
wind
direction
speed
MPH
gust
MPH
rain 1hr
in
rain 24hr
in
rain mn
in
humidity
%
barometer
mb
20260831010004 80 240 9.0 13.0 0.00 0.00 0.00 22 1016.2
20260831005503 80 238 9.0 13.0 0.00 0.00 0.00 22 1016.2
20260831005003 81 240 8.0 12.0 0.00 0.00 0.00 24 1016.3
20260831004504 81 242 7.0 13.0 0.00 0.00 0.00 24 1016.2
20260831004003 81 242 8.0 11.0 0.00 0.00 0.00 25 1016.2
20260831003503 81 224 7.0 11.0 0.00 0.00 0.00 25 1016.3
20260831002503 80 229 7.0 12.0 0.00 0.00 0.00 25 1016.4
20260831002003 80 223 7.0 13.0 0.00 0.00 0.00 24 1016.2
20260831001503 80 221 7.0 10.0 0.00 0.00 0.00 25 1016.3
20260831001003 80 224 8.0 12.0 0.00 0.00 0.00 24 1016.1
20260831000504 80 220 10.0 12.0 0.00 0.00 0.00 25 1016.2
20260831000003 81 228 9.0 19.0 0.00 0.00 0.00 25 1016.2
20260830235503 82 230 8.0 16.0 0.00 0.00 0.00 25 1016.1
20260830235003 81 223 10.0 12.0 0.00 0.00 0.00 26 1016.2
20260830234503 81 223 12.0 14.0 0.00 0.00 0.00 25 1016.2
20260830234003 81 237 10.0 19.0 0.00 0.00 0.00 24 1016.2
20260830233003 81 235 9.0 13.0 0.00 0.00 0.00 23 1016.2
20260830232503 81 235 8.0 14.0 0.00 0.00 0.00 24 1016.3
20260830232003 80 240 7.0 16.0 0.00 0.00 0.00 24 1016.3
20260830231503 79 246 8.0 13.0 0.00 0.00 0.00 26 1016.4
20260830231004 79 247 9.0 12.0 0.00 0.00 0.00 27 1016.5
20260830230504 79 243 10.0 16.0 0.00 0.00 0.00 26 1016.5
20260830230003 79 234 11.0 18.0 0.00 0.00 0.00 26 1016.5
20260830225504 79 237 11.0 17.0 0.00 0.00 0.00 26 1016.5
20260830225003 80 239 10.0 17.0 0.00 0.00 0.00 26 1016.5
20260830224503 81 240 11.0 17.0 0.00 0.00 0.00 26 1016.5
20260830223503 82 232 13.0 20.0 0.00 0.00 0.00 23 1016.5
20260830223003 82 236 12.0 19.0 0.00 0.00 0.00 24 1016.4
20260830222504 83 241 12.0 19.0 0.00 0.00 0.00 22 1016.4
20260830221503 84 235 10.0 18.0 0.00 0.00 0.00 22 1016.5
20260830220504 84 238 8.0 16.0 0.00 0.00 0.00 22 1016.6
20260830220003 84 229 9.0 14.0 0.00 0.00 0.00 22 1016.6
20260830214503 84 241 6.0 16.0 0.00 0.00 0.00 21 1016.7
20260830213503 83 210 9.0 11.0 0.00 0.00 0.00 24 1016.9
20260830212505 82 243 10.0 16.0 0.00 0.00 0.00 23 1016.9
20260830212005 82 244 10.0 15.0 0.00 0.00 0.00 26 1017.0
20260830211506 82 249 10.0 15.0 0.00 0.00 0.00 24 1016.9
20260830211005 82 248 10.0 19.0 0.00 0.00 0.00 24 1017.0
20260830210505 81 246 11.0 16.0 0.00 0.00 0.00 25 1017.0
20260830210006 81 245 11.0 14.0 0.00 0.00 0.00 26 1016.9
20260830205506 81 247 10.0 17.0 0.00 0.00 0.00 26 1017.0
20260830204506 81 245 11.0 18.0 0.00 0.00 0.00 26 1017.1
20260830204006 81 240 11.0 17.0 0.00 0.00 0.00 26 1017.2
20260830203006 81 240 12.0 19.0 0.00 0.00 0.00 26 1017.3
20260830202506 81 232 11.0 18.0 0.00 0.00 0.00 26 1017.2
20260830202005 81 238 10.0 17.0 0.00 0.00 0.00 28 1017.4
20260830201505 82 240 9.0 17.0 0.00 0.00 0.00 26 1017.3
20260830200006 81 236 11.0 15.0 0.00 0.00 0.00 27 1017.3
20260830195506 81 236 12.0 16.0 0.00 0.00 0.00 27 1017.4
20260830194506 81 237 11.0 20.0 0.00 0.00 0.00 27 1017.5
20260830194005 80 237 12.0 21.0 0.00 0.00 0.00 28 1017.6
20260830193506 80 238 11.0 17.0 0.00 0.00 0.00 29 1017.6
20260830193006 80 240 11.0 17.0 0.00 0.00 0.00 28 1017.5
20260830192506 80 240 11.0 14.0 0.00 0.00 0.00 29 1017.6
20260830191005 79 240 12.0 19.0 0.00 0.00 0.00 33 1017.8
20260830190506 79 238 13.0 19.0 0.00 0.00 0.00 33 1017.7
20260830190005 79 234 13.0 20.0 0.00 0.00 0.00 34 1017.8
20260830185506 79 234 12.0 18.0 0.00 0.00 0.00 35 1017.7
20260830185006 79 237 12.0 18.0 0.00 0.00 0.00 36 1017.7
20260830184506 79 238 11.0 17.0 0.00 0.00 0.00 36 1017.7
20260830184006 79 236 11.0 16.0 0.00 0.00 0.00 36 1017.7
20260830183506 78 237 11.0 19.0 0.00 0.00 0.00 37 1017.8
20260830182506 78 237 9.0 15.0 0.00 0.00 0.00 38 1017.8
20260830182006 78 242 10.0 14.0 0.00 0.00 0.00 38 1017.7
20260830181006 78 236 11.0 19.0 0.00 0.00 0.00 38 1017.7
20260830175506 78 235 9.0 15.0 0.00 0.00 0.00 39 1017.8
20260830174506 77 240 11.0 17.0 0.00 0.00 0.00 39 1017.9
20260830173506 77 243 9.0 15.0 0.00 0.00 0.00 41 1018.0
20260830173006 76 240 7.0 15.0 0.00 0.00 0.00 42 1018.0
20260830171506 76 240 7.0 13.0 0.00 0.00 0.00 45 1018.1
20260830171006 76 250 6.0 10.0 0.00 0.00 0.00 45 1018.2
20260830170006 75 240 5.0 8.0 0.00 0.00 0.00 46 1018.0
20260830165505 75 244 5.0 10.0 0.00 0.00 0.00 46 1018.1
20260830165006 75 244 4.0 9.0 0.00 0.00 0.00 47 1018.1
20260830164506 74 237 3.0 9.0 0.00 0.00 0.00 48 1018.1
20260830164006 74 232 2.0 4.0 0.00 0.00 0.00 48 1018.2
20260830163006 73 237 1.0 5.0 0.00 0.00 0.00 50 1018.3
20260830162006 72 306 0.0 3.0 0.00 0.00 0.00 54 1018.3
20260830160506 69 51 0.0 1.0 0.00 0.00 0.00 59 1018.5
20260830160006 68 54 0.0 1.0 0.00 0.00 0.00 61 1018.6
20260830155506 66 60 0.0 1.0 0.00 0.00 0.00 63 1018.7
20260830155006 65 72 0.0 1.0 0.00 0.00 0.00 65 1018.6
20260830154506 64 0 0.0 0.0 0.00 0.00 0.00 66 1018.3
20260830153506 63 0 0.0 0.0 0.00 0.00 0.00 67 1018.4
20260830152503 64 0 0.0 0.0 0.00 0.00 0.00 60 1018.0
20260830152002 64 0 0.0 0.0 0.00 0.00 0.00 60 1018.0
20260830151503 64 0 0.0 0.0 0.00 0.00 0.00 60 1018.0
20260830151002 64 0 0.0 0.0 0.00 0.00 0.00 60 1018.0
20260830150003 64 0 0.0 0.0 0.00 0.00 0.00 60 1018.0
20260830145003 64 0 0.0 0.0 0.00 0.00 0.00 60 1018.0
20260830144503 64 0 0.0 0.0 0.00 0.00 0.00 60 1018.0
20260830144002 64 0 0.0 0.0 0.00 0.00 0.00 60 1018.0
20260830143002 64 0 0.0 0.0 0.00 0.00 0.00 60 1018.0
20260830142503 64 0 0.0 0.0 0.00 0.00 0.00 60 1018.0
20260830141502 64 0 0.0 0.0 0.00 0.00 0.00 60 1018.0
20260830140002 64 0 0.0 0.0 0.00 0.00 0.00 60 1018.0
20260830135003 64 0 0.0 0.0 0.00 0.00 0.00 60 1018.0
20260830134502 64 0 0.0 0.0 0.00 0.00 0.00 60 1018.0
20260830134003 64 0 0.0 0.0 0.00 0.00 0.00 60 1018.0
20260830133502 64 0 0.0 0.0 0.00 0.00 0.00 60 1018.0
20260830133003 64 0 0.0 0.0 0.00 0.00 0.00 60 1018.0
20260830132503 64 0 0.0 0.0 0.00 0.00 0.00 60 1018.0
20260830132002 64 0 0.0 0.0 0.00 0.00 0.00 60 1018.0
20260830131003 64 0 0.0 0.0 0.00 0.00 0.00 60 1018.0
20260830130502 64 0 0.0 0.0 0.00 0.00 0.00 60 1018.0
20260830130003 64 0 0.0 0.0 0.00 0.00 0.00 60 1018.0
20260830125502 64 0 0.0 0.0 0.00 0.00 0.00 60 1018.0
20260830125003 64 0 0.0 0.0 0.00 0.00 0.00 60 1018.0
20260830124502 64 0 0.0 0.0 0.00 0.00 0.00 60 1018.0
20260830124003 64 0 0.0 0.0 0.00 0.00 0.00 60 1018.0
20260830123503 64 0 0.0 0.0 0.00 0.00 0.00 60 1018.0
20260830123002 64 0 0.0 0.0 0.00 0.00 0.00 60 1018.0
20260830122503 64 0 0.0 0.0 0.00 0.00 0.00 60 1018.0
20260830122003 64 0 0.0 0.0 0.00 0.00 0.00 60 1018.0
20260830121503 64 0 0.0 0.0 0.00 0.00 0.00 60 1018.0
20260830121003 64 0 0.0 0.0 0.00 0.00 0.00 60 1018.0
20260830120502 64 0 0.0 0.0 0.00 0.00 0.00 60 1018.0
20260830120003 64 0 0.0 0.0 0.00 0.00 0.00 60 1018.0
20260830115502 64 0 0.0 0.0 0.00 0.00 0.00 60 1018.0
20260830115003 64 0 0.0 0.0 0.00 0.00 0.00 60 1018.0
20260830114502 64 0 0.0 0.0 0.00 0.00 0.00 60 1018.0
20260830114003 64 0 0.0 0.0 0.00 0.00 0.00 60 1018.0
20260830113503 64 0 0.0 0.0 0.00 0.00 0.00 60 1018.0
20260830113002 64 0 0.0 0.0 0.00 0.00 0.00 60 1018.0
20260830112503 64 0 0.0 0.0 0.00 0.00 0.00 60 1018.0
20260830112003 64 0 0.0 0.0 0.00 0.00 0.00 60 1018.0
20260830111002 64 0 0.0 0.0 0.00 0.00 0.00 60 1018.0
20260830110503 64 0 0.0 0.0 0.00 0.00 0.00 60 1018.0
20260830105503 64 0 0.0 0.0 0.00 0.00 0.00 60 1018.0
20260830105003 64 0 0.0 0.0 0.00 0.00 0.00 60 1018.0
20260830104502 64 0 0.0 0.0 0.00 0.00 0.00 60 1018.0
20260830104003 64 0 0.0 0.0 0.00 0.00 0.00 60 1018.0
20260830103503 64 0 0.0 0.0 0.00 0.00 0.00 60 1018.0
20260830103003 64 0 0.0 0.0 0.00 0.00 0.00 60 1018.0
20260830102503 64 0 0.0 0.0 0.00 0.00 0.00 60 1018.0
20260830102002 64 0 0.0 0.0 0.00 0.00 0.00 60 1018.0
20260830101503 64 0 0.0 0.0 0.00 0.00 0.00 60 1018.0
20260830101003 64 0 0.0 0.0 0.00 0.00 0.00 60 1018.0
20260830100503 64 0 0.0 0.0 0.00 0.00 0.00 60 1018.0
20260830100003 64 0 0.0 0.0 0.00 0.00 0.00 60 1018.0
20260830095503 64 0 0.0 0.0 0.00 0.00 0.00 60 1018.0
20260830095003 64 0 0.0 0.0 0.00 0.00 0.00 60 1018.0
20260830094503 64 0 0.0 0.0 0.00 0.00 0.00 60 1018.0
20260830094003 64 0 0.0 0.0 0.00 0.00 0.00 60 1018.0
20260830093502 64 0 0.0 0.0 0.00 0.00 0.00 60 1018.0
20260830093003 64 0 0.0 0.0 0.00 0.00 0.00 60 1018.0
20260830092503 64 0 0.0 0.0 0.00 0.00 0.00 60 1018.0
20260830092003 64 0 0.0 0.0 0.00 0.00 0.00 60 1018.0
20260830091002 64 0 0.0 0.0 0.00 0.00 0.00 60 1018.0
20260830090503 64 0 0.0 0.0 0.00 0.00 0.00 60 1018.0
20260830090003 64 0 0.0 0.0 0.00 0.00 0.00 60 1018.0
20260830085503 64 0 0.0 0.0 0.00 0.00 0.00 60 1018.0
20260830085003 64 0 0.0 0.0 0.00 0.00 0.00 60 1018.0
20260830084502 64 0 0.0 0.0 0.00 0.00 0.00 60 1018.0
20260830084003 64 0 0.0 0.0 0.00 0.00 0.00 60 1018.0
20260830083503 64 0 0.0 0.0 0.00 0.00 0.00 60 1018.0
20260830083003 64 0 0.0 0.0 0.00 0.00 0.00 60 1018.0
20260830082002 64 0 0.0 0.0 0.00 0.00 0.00 60 1018.0
20260830081503 64 0 0.0 0.0 0.00 0.00 0.00 60 1018.0
20260830081003 64 0 0.0 0.0 0.00 0.00 0.00 60 1018.0
20260830080503 64 0 0.0 0.0 0.00 0.00 0.00 60 1018.0
20260830080003 64 0 0.0 0.0 0.00 0.00 0.00 60 1018.0
20260830075502 64 0 0.0 0.0 0.00 0.00 0.00 60 1018.0
20260830074503 64 0 0.0 0.0 0.00 0.00 0.00 60 1018.0
20260830074003 64 0 0.0 0.0 0.00 0.00 0.00 60 1018.0
20260830073503 64 0 0.0 0.0 0.00 0.00 0.00 60 1018.0
20260830072503 65 0 0.0 0.0 0.00 0.00 0.00 60 1018.1
20260830072003 65 0 0.0 0.0 0.00 0.00 0.00 60 1018.0
20260830071503 65 122 0.0 2.0 0.00 0.00 0.00 60 1018.0
20260830071003 65 0 0.0 0.0 0.00 0.00 0.00 60 1018.0
20260830070503 65 0 0.0 0.0 0.00 0.00 0.00 60 1018.1
20260830070005 64 0 0.0 0.0 0.00 0.00 0.00 60 1018.2
20260830065003 64 0 0.0 0.0 0.00 0.00 0.00 60 1018.1
20260830064503 64 0 0.0 0.0 0.00 0.00 0.00 61 1018.1
20260830063503 64 0 0.0 0.0 0.00 0.00 0.00 61 1018.1
20260830063004 64 0 0.0 0.0 0.00 0.00 0.00 61 1018.0
20260830062003 64 128 0.0 1.0 0.00 0.00 0.00 61 1017.9
20260830061003 64 0 0.0 0.0 0.00 0.00 0.00 61 1018.0
20260830060503 65 0 0.0 0.0 0.00 0.00 0.00 61 1018.1
20260830060003 65 0 0.0 0.0 0.00 0.00 0.00 60 1018.1
20260830055504 65 0 0.0 0.0 0.00 0.00 0.00 60 1018.1
20260830054004 66 84 0.0 1.0 0.00 0.00 0.00 59 1018.2
20260830053503 66 0 0.0 0.0 0.00 0.00 0.00 58 1018.2
20260830053003 66 39 0.0 1.0 0.00 0.00 0.00 58 1018.2
20260830052503 67 0 0.0 0.0 0.00 0.00 0.00 57 1018.3
20260830051503 67 0 0.0 0.0 0.00 0.00 0.00 57 1018.3
20260830050003 68 0 0.0 0.0 0.00 0.00 0.00 56 1018.6
20260830045503 68 0 0.0 0.0 0.00 0.00 0.00 55 1018.6
20260830045003 68 41 0.0 1.0 0.00 0.00 0.00 56 1018.6
20260830044503 68 40 0.0 1.0 0.00 0.00 0.00 56 1018.6
20260830044003 69 0 0.0 0.0 0.00 0.00 0.00 56 1018.5
20260830043503 69 40 0.0 1.0 0.00 0.00 0.00 56 1018.6
20260830043003 69 41 0.0 1.0 0.00 0.00 0.00 55 1018.6
20260830042503 69 0 0.0 0.0 0.00 0.00 0.00 54 1018.5
20260830041503 70 0 0.0 0.0 0.00 0.00 0.00 53 1018.4
20260830040503 70 0 0.0 0.0 0.00 0.00 0.00 53 1018.2
20260830035503 71 0 0.0 0.0 0.00 0.00 0.00 52 1018.1
20260830035003 71 0 0.0 0.0 0.00 0.00 0.00 52 1018.1
20260830034504 71 0 0.0 0.0 0.00 0.00 0.00 52 1018.1
20260830034003 71 6 0.0 2.0 0.00 0.00 0.00 52 1018.0
20260830033004 72 0 0.0 0.0 0.00 0.00 0.00 51 1017.9
20260830032503 72 5 0.0 1.0 0.00 0.00 0.00 51 1017.9
20260830032003 72 0 0.0 0.0 0.00 0.00 0.00 51 1017.9
20260830031504 72 12 0.0 1.0 0.00 0.00 0.00 50 1017.8
20260830031003 73 0 0.0 0.0 0.00 0.00 0.00 49 1017.6
20260830030503 73 11 0.0 1.0 0.00 0.00 0.00 50 1017.6
20260830030004 73 0 0.0 0.0 0.00 0.00 0.00 49 1017.6
20260830025003 74 11 0.0 1.0 0.00 0.00 0.00 48 1017.5
20260830024504 74 256 2.0 1.0 0.00 0.00 0.00 48 1017.7
20260830024003 74 210 2.0 3.0 0.00 0.00 0.00 47 1017.5
20260830023503 74 185 3.0 7.0 0.00 0.00 0.00 47 1017.4
20260830023004 74 189 4.0 4.0 0.00 0.00 0.00 46 1017.4
20260830022503 75 191 3.0 5.0 0.00 0.00 0.00 46 1017.6
20260830022003 75 175 2.0 6.0 0.00 0.00 0.00 45 1017.6
20260830021503 75 161 2.0 4.0 0.00 0.00 0.00 45 1017.8
20260830021003 76 160 3.0 9.0 0.00 0.00 0.00 44 1017.7
20260830020503 76 179 3.0 5.0 0.00 0.00 0.00 43 1017.7
20260830020004 77 182 2.0 8.0 0.00 0.00 0.00 43 1017.7
20260830015503 77 177 2.0 5.0 0.00 0.00 0.00 42 1017.7
20260830015003 78 167 3.0 7.0 0.00 0.00 0.00 42 1017.9
20260830014503 78 162 3.0 5.0 0.00 0.00 0.00 41 1017.8
20260830013503 79 171 5.0 8.0 0.00 0.00 0.00 40 1017.8
20260830013003 80 173 4.0 10.0 0.00 0.00 0.00 40 1017.9
20260830012503 80 193 3.0 8.0 0.00 0.00 0.00 40 1017.8
20260830012003 80 181 3.0 7.0 0.00 0.00 0.00 40 1017.9
20260830011003 80 196 3.0 6.0 0.00 0.00 0.00 40 1017.9
20260830010504 80 218 3.0 7.0 0.00 0.00 0.00 39 1018.0